SCP
0 0 0 0 0 0 0 0 0 0 0 0 0 0 0 0 0 0 0 0 0 0
0 0 0 0 0 0 0 0 0 0 0 0 0 0 0 0 0 0 0 0 0 0
0 0 0 0 0 0 0 0 0 0 0 0 0 0 0 0 0 0 0 0 0 0
0 0 0 0 0 0 0 0 0 0 0 0 0 0 0 0 0 0 0 0 0 0
0 0 0 0 0 0 0 0 0 0 0 0 0 0 0 0 0 0 0 0 0 0
0 0 0 0 0 0 0 0 0 0 0 0 0 0 0 0 0 0 0 0 0 0
0 0 0 0 0 0 0 0 0 0 0 0 0 0 0 0 0 0 0 0 0 0
0 0 0 0 0 0 0 0 0 0 0 0 0 0 0 0 0 0 0 0 0 0
0 0 0 0 0 0 0 0 0 0 0 0 0 0 0 0 0 0 0 0 0 0
0 0 0 0 0 0 0 0 0 0 0 0 0 0 0 0 0 0 0 0 0 0
0 0 0 0 0 0 0 0 0 0 0 0 0 0 0 0 0 0 0 0 0 0
0 0 0 0 0 0 0 0 0 0 0 0 0 0 0 0 0 0 0 0 0 0
-0 0 0 0 0 0 0 0 0 0 0 0 0 0 0 0 0 0 0 0 0 0
-0 0 0 0 0 0 0 0 0 0 0 0 0 0 0 0 0 0 0 0 0 0
Wind_Speed_500mb
58 60 58 57 57 54 56 56 51 43 56 59 74 76 72 77 84 93 95 98 97 95
55 58 59 57 54 54 52 54 53 48 54 54 75 73 79 78 84 92 97 108 106 92
58 57 60 59 56 56 54 52 49 51 44 49 64 70 82 85 81 89 97 111 104 94
58 57 59 60 59 57 53 52 47 47 43 55 46 57 82 91 80 84 98 106 97 89
59 58 58 58 58 59 56 49 47 46 42 39 56 40 80 90 86 80 95 99 93 89
57 57 57 57 58 56 54 50 48 45 42 34 45 52 60 91 89 83 90 89 94 87
58 56 57 57 58 58 52 50 49 43 39 34 39 61 51 85 85 82 80 87 85 79
57 54 55 56 58 55 49 44 42 40 35 34 33 50 53 53 80 80 83 83 79 84
57 55 55 58 60 60 55 45 40 35 33 33 25 41 63 42 83 75 77 74 82 78
55 53 53 59 59 59 53 47 40 37 32 27 23 23 52 51 41 58 75 78 68 68
53 51 50 54 59 59 53 49 46 42 36 28 19 16 33 56 56 46 61 58 66 67
55 52 50 50 58 60 53 48 44 46 44 40 25 16 20 32 37 52 51 53 54 63
54 52 48 47 52 58 53 51 51 48 39 35 33 27 3 8 17 38 52 55 55 57
49 49 46 42 40 45 46 46 51 50 44 34 36 31 23 3 11 17 33 48 57 61
Wind_Direction_500mb
339 337 333 332 330 322 315 308 295 247 233 207 220 230 232 235 230 225 223 214 203 197
340 336 334 331 330 327 318 309 302 283 240 219 215 224 232 231 228 226 220 208 205 206
341 339 336 332 332 327 321 314 307 293 258 226 205 217 225 229 233 227 218 212 214 205
341 340 338 337 333 328 323 318 313 307 282 236 212 208 225 228 227 223 220 216 214 210
339 341 341 339 335 331 328 325 316 305 294 251 223 203 222 226 218 225 218 215 213 206
340 342 343 342 338 334 331 328 320 312 300 273 235 211 217 223 224 224 219 218 214 211
341 343 344 344 342 339 337 333 325 317 304 290 254 205 220 223 226 224 222 217 216 212
340 343 346 347 346 341 341 336 330 328 312 292 259 214 204 217 223 219 216 215 211 211
341 344 350 353 350 348 345 345 340 340 324 303 280 229 203 209 215 217 215 208 210 212
344 345 350 356 357 355 352 351 354 357 345 313 295 255 214 203 204 218 217 206 203 205
348 347 349 355 3 358 359 6 8 6 3 348 316 261 225 211 201 213 224 212 205 203
349 349 347 355 3 2 5 13 18 21 18 18 353 296 218 207 210 209 212 213 206 204
348 347 348 353 358 1 10 19 24 28 28 28 45 40 100 195 236 221 208 199 209 205
346 347 346 348 349 357 4 22 31 32 36 39 39 30 9 12 232 211 217 210 202 209
Wind_Speed_850mb
58 60 58 57 57 54 56 56 51 43 56 59 74 76 72 77 84 93 95 98 97 95
55 58 59 57 54 54 52 54 53 48 54 54 75 73 79 78 84 92 97 108 106 92
58 57 60 59 56 56 54 52 49 51 44 49 64 70 82 85 81 89 97 111 104 94
58 57 59 60 59 57 53 52 47 47 43 55 46 57 82 91 80 84 98 106 97 89
59 58 58 58 58 59 56 49 47 46 42 39 56 40 80 90 86 80 95 99 93 89
57 57 57 57 58 56 54 50 48 45 42 34 45 52 60 91 89 83 90 89 94 87
58 56 57 57 58 58 52 50 49 43 39 34 39 61 51 85 85 82 80 87 85 79
57 54 55 56 58 55 49 44 42 40 35 34 33 50 53 53 80 80 83 83 79 84
57 55 55 58 60 60 55 45 40 35 33 33 25 41 63 42 83 75 77 74 82 78
55 53 53 59 59 59 53 47 40 37 32 27 23 23 52 51 41 58 75 78 68 68
53 51 50 54 59 59 53 49 46 42 36 28 19 16 33 56 56 46 61 58 66 67
55 52 50 50 58 60 53 48 44 46 44 40 25 16 20 32 37 52 51 53 54 63
54 52 48 47 52 58 53 51 51 48 39 35 33 27 3 8 17 38 52 55 55 57
49 49 46 42 40 45 46 46 51 50 44 34 36 31 23 3 11 17 33 48 57 61
Wind_Direction_850mb
339 337 333 332 330 322 315 308 295 247 233 207 220 230 232 235 230 225 223 214 203 197
340 336 334 331 330 327 318 309 302 283 240 219 215 224 232 231 228 226 220 208 205 206
341 339 336 332 332 327 321 314 307 293 258 226 205 217 225 229 233 227 218 212 214 205
341 340 338 337 333 328 323 318 313 307 282 236 212 208 225 228 227 223 220 216 214 210
339 341 341 339 335 331 328 325 316 305 294 251 223 203 222 226 218 225 218 215 213 206
340 342 343 342 338 334 331 328 320 312 300 273 235 211 217 223 224 224 219 218 214 211
341 343 344 344 342 339 337 333 325 317 304 290 254 205 220 223 226 224 222 217 216 212
340 343 346 347 346 341 341 336 330 328 312 292 259 214 204 217 223 219 216 215 211 211
341 344 350 353 350 348 345 345 340 340 324 303 280 229 203 209 215 217 215 208 210 212
344 345 350 356 357 355 352 351 354 357 345 313 295 255 214 203 204 218 217 206 203 205
348 347 349 355 3 358 359 6 8 6 3 348 316 261 225 211 201 213 224 212 205 203
349 349 347 355 3 2 5 13 18 21 18 18 353 296 218 207 210 209 212 213 206 204
348 347 348 353 358 1 10 19 24 28 28 28 45 40 100 195 236 221 208 199 209 205
346 347 346 348 349 357 4 22 31 32 36 39 39 30 9 12 232 211 217 210 202 209